Flag for Germany Weather past 2 weeks in Ettlingen, Baden-Württemberg, Germany

Now
64 °F

Sunny.


Feels Like: 64 °F
Forecast: 42 / 71 °F
Wind: No wind

Location: Karlsruhe - Baden Wurttemberg

Current Time: Aug 21, 2014 at 8:18:50 PM

Latest Report: Aug 21, 2014 at 7:50 PM


Visibility: 10 mi

Pressure: 30.01 "Hg

Humidity: 49%

Dew point: 45 °F

Location of EttlingenLocation

Historic Weather in Ettlingen — Graph

°F

Ettlingen temperature yesterday

Maximum temperature yesterday: 64 °F (at 1:50 PM)
Minimum temperature yesterday: 46 °F (at 6:50 AM)
Average temperature yesterday: 58 °F

Past Weeks' High & Low Weather Summary

 TemperatureHumidityPressure
High82 °F (Aug 10, 3:50 PM)94% (Aug 7, 7:50 AM)30.15 "Hg (Aug 7, 7:50 AM)
Low46 °F (Aug 20, 6:50 AM)33% (Aug 11, 6:20 PM)29.65 "Hg (Aug 13, 9:50 AM)
Average64 °F68%29.94 "Hg
* Reported Aug 6 7:20 PM — Aug 21 7:20 PM, Ettlingen, Weather by CustomWeather, © 2014

Note: Actual official high and low records may vary slightly from our data, if they occured in-between our weather recording intervals... More about our weather records

Advertising

Ettlingen weather history for previous 24 hours

 ConditionsComfort  
Time TempWeatherWind HumidityBarometerVisibility
7:20 PM
Aug 21
66 °FSunny.No wind43%30.01 "Hg10 mi
6:50 PM68 °FSunny.3 mph40%30.01 "Hg10 mi
6:20 PM68 °FPassing clouds.5 mph38%30.01 "HgN/A
5:50 PM68 °FSunny.3 mph43%30.01 "Hg10 mi
5:20 PM66 °FPassing clouds.5 mph46%30.04 "HgN/A
4:50 PM68 °FSunny.2 mph40%30.04 "Hg10 mi
4:20 PM66 °FScattered clouds.5 mph46%30.04 "HgN/A
3:50 PM66 °FScattered clouds.5 mph46%30.04 "HgN/A
3:20 PM66 °FScattered clouds.5 mph46%30.04 "HgN/A
2:50 PM68 °FScattered clouds.6 mph38%30.07 "HgN/A
2:20 PM68 °FScattered clouds.7 mph40%30.07 "HgN/A
1:50 PM66 °FPassing clouds.6 mph46%30.07 "HgN/A
1:20 PM64 °FPassing clouds.6 mph49%30.07 "HgN/A
12:50 PM64 °FScattered clouds.5 mph56%30.07 "HgN/A
12:20 PM64 °FScattered clouds.3 mph60%30.07 "HgN/A
11:50 AM63 °FScattered clouds.5 mph59%30.09 "HgN/A
11:20 AM63 °FPassing clouds.5 mph64%30.09 "HgN/A
10:50 AM61 °FPassing clouds.6 mph63%30.09 "HgN/A
10:20 AM59 °FPassing clouds.6 mph77%30.09 "HgN/A
9:50 AM59 °FPassing clouds.7 mph72%30.09 "HgN/A
9:20 AM57 °FPassing clouds.5 mph82%30.09 "HgN/A
8:50 AM54 °FSunny.3 mph88%30.09 "Hg10 mi
8:20 AM54 °FSunny.3 mph88%30.07 "Hg10 mi
7:50 AM52 °FSunny.2 mph88%30.07 "Hg10 mi
7:20 AM50 °FClear.No wind88%30.07 "Hg10 mi
6:50 AM48 °FClear.2 mph94%30.07 "Hg10 mi
6:20 AM48 °FFog.2 mph94%30.07 "HgN/A
5:50 AM50 °FClear.2 mph88%30.07 "Hg10 mi
5:20 AM48 °FClear.6 mph94%30.07 "Hg10 mi
4:50 AM48 °FClear.7 mph87%30.07 "Hg10 mi
2:20 AM52 °FClear.5 mph82%30.07 "Hg10 mi
1:50 AM54 °FClear.5 mph82%30.07 "Hg10 mi
10:50 PM
Aug 20
57 °FClear.5 mph77%30.04 "Hg10 mi
10:20 PM57 °FClear.5 mph77%30.04 "Hg10 mi
9:50 PM59 °FClear.1 mph68%30.04 "Hg10 mi
9:20 PM59 °FSunny.3 mph68%30.04 "Hg10 mi
8:50 PM59 °FSunny.2 mph68%30.01 "Hg10 mi
8:20 PM61 °FSunny.5 mph59%30.01 "Hg10 mi
Weather by CustomWeather, © 2014

See weather overviewHow to use our weather pages